Philadelphia, PA

3:55 AM EST on December 11, 2019 (GMT -0500)
Philadelphia International

Weather History for KPHL - November, 2019

Change the Weather History Date:

Wednesday, November 13, 2019

  Actual Average Record
Temperature  
Mean Temperature 29 °F 49 °F  
Max Temperature 35 °F 57 °F 74 °F (1902)
Min Temperature 23 °F 40 °F 24 °F (1996)
Degree Days  
Heating Degree Days 36 16  
Month to date heating degree days 266 189  
Since 1 July heating degree days 418 482  
Cooling Degree Days 0 0  
Month to date cooling degree days 0 0  
Year to date cooling degree days 1610 1300  
Moisture  
Dew Point 8 °F    
Average Humidity 40    
Maximum Humidity 51    
Minimum Humidity 32    
Precipitation  
Precipitation 0.00 in 0.09 in 1.83 in (1904)
Month to date precipitation 0.24 1.21  
Year to date precipitation 41.30 36.19  
Snow  
Snow 0.00 in 0.00 in 0.20 in (1904)
Month to date snowfall T 0.0  
Since 1 July snowfall T 0.0  
Since 1 September snowfall T 0.0  
Snow Depth 0.00 in    
Sea Level Pressure  
Sea Level Pressure 30.38 in    
Wind  
Wind Speed 11 mph ()    
Max Wind Speed 23 mph    
Max Gust Speed 31 mph    
Visibility 10.0 miles    
Events      
T = Trace of Precipitation, MM = Missing Value Source: Averaged Metar Reports

Daily Weather History Graph

Daily Weather History Graph

Search for Another Location

Airport or City:

Astronomy

Nov. 13, 2019 Rise Set
Actual Time 6:43 AM EST 4:46 PM EST
Civil Twilight 6:14 AM EST 5:15 PM EST
Nautical Twilight 5:41 AM EST 5:48 PM EST
Astronomical Twilight 5:09 AM EST 6:19 PM EST
Moon 5:48 PM EST (11/13) 7:34 AM EST (11/13)
Length of Visible Light 11h 01m
Length of Day
10h 03m
Full, 99% of the Moon is Illuminated
Nov 13
Full
Nov 19
Last Quarter
Nov 26
New
Dec 4
First Quarter
Dec 12
Full

Hourly Weather History & Observations

Time (EST) Temp. Windchill Dew Point Humidity Pressure Visibility Wind Dir Wind Speed Gust Speed Precip Events Conditions
12:54 AM 26.1 °F 14.0 °F -0.0 °F 32% 30.26 in 10.0 mi NNW 15.0 mph 21.9 mph N/A   Clear
1:54 AM 25.0 °F 13.1 °F 1.9 °F 37% 30.28 in 10.0 mi NW 13.8 mph - N/A   Clear
2:54 AM 25.0 °F 14.8 °F 3.0 °F 39% 30.29 in 10.0 mi NW 10.4 mph - N/A   Clear
3:54 AM 24.1 °F 10.1 °F 3.9 °F 42% 30.30 in 10.0 mi NW 18.4 mph 23.0 mph N/A   Clear
4:54 AM 24.1 °F 11.0 °F 3.9 °F 42% 30.32 in 10.0 mi NW 16.1 mph - N/A   Partly Cloudy
5:54 AM 24.1 °F 12.5 °F 5.0 °F 44% 30.34 in 10.0 mi NW 12.7 mph - N/A   Clear
6:54 AM 24.1 °F 14.4 °F 6.1 °F 46% 30.36 in 10.0 mi WNW 9.2 mph - N/A   Clear
7:54 AM 25.0 °F 14.8 °F 7.0 °F 46% 30.38 in 10.0 mi NW 10.4 mph - N/A   Clear
8:54 AM 27.0 °F 16.7 °F 9.0 °F 47% 30.40 in 10.0 mi NW 11.5 mph - N/A   Clear
9:54 AM 28.9 °F 17.3 °F 9.0 °F 43% 30.40 in 10.0 mi NW 16.1 mph - N/A   Partly Cloudy
10:54 AM 30.9 °F 18.1 °F 9.0 °F 40% 30.40 in 10.0 mi NNW 21.9 mph - N/A   Partly Cloudy
11:54 AM 34.0 °F 22.7 °F 10.0 °F 37% 30.38 in 10.0 mi NNW 19.6 mph 25.3 mph N/A   Partly Cloudy
12:54 PM 34.0 °F 23.4 °F 7.0 °F 32% 30.38 in 10.0 mi WNW 17.3 mph - N/A   Partly Cloudy
1:54 PM 34.0 °F 24.6 °F 8.1 °F 34% 30.37 in 10.0 mi NW 13.8 mph 18.4 mph N/A   Scattered Clouds
2:54 PM 35.1 °F 27.4 °F 8.1 °F 33% 30.38 in 10.0 mi NW 10.4 mph - N/A   Scattered Clouds
3:54 PM 35.1 °F 26.9 °F 8.1 °F 33% 30.40 in 10.0 mi WNW 11.5 mph - N/A   Partly Cloudy
4:54 PM 33.1 °F 25.5 °F 8.1 °F 35% 30.40 in 10.0 mi WNW 9.2 mph - N/A   Partly Cloudy
5:54 PM 33.1 °F 26.9 °F 9.0 °F 37% 30.42 in 10.0 mi WNW 6.9 mph - N/A   Partly Cloudy
6:54 PM 32.0 °F 25.6 °F 9.0 °F 38% 30.44 in 10.0 mi NW 6.9 mph - N/A   Clear
7:54 PM 30.9 °F 25.2 °F 10.0 °F 42% 30.44 in 10.0 mi NNW 5.8 mph - N/A   Clear
8:54 PM 30.0 °F - 10.0 °F 43% 30.44 in 10.0 mi Calm Calm - N/A   Clear
9:54 PM 32.0 °F - 10.0 °F 40% 30.45 in 10.0 mi Calm Calm - N/A   Overcast
10:54 PM 30.9 °F - 10.9 °F 43% 30.47 in 10.0 mi Calm Calm - N/A   Mostly Cloudy
11:54 PM 30.0 °F 24.1 °F 14.0 °F 51% 30.46 in 10.0 mi Variable 5.8 mph - N/A   Overcast